TimeCDT,TemperatureF,Dew PointF,Humidity,Sea Level PressureIn,VisibilityMPH,Wind Direction,Wind SpeedMPH,Gust SpeedMPH,PrecipitationIn,Events,Conditions,WindDirDegrees,DateUTC
12:15 AM,48.9,30.7,50,30.00,10.0,South,12.7,-,N/A,,Clear,190,2012-10-11 05:15:00
12:35 AM,49.1,30.7,49,30.00,10.0,SSW,12.7,-,N/A,,Clear,200,2012-10-11 05:35:00
12:55 AM,49.5,30.4,48,30.00,10.0,SSW,15.0,20.7,N/A,,Clear,200,2012-10-11 05:55:00
1:15 AM,49.1,30.2,48,29.99,10.0,South,13.8,-,N/A,,Clear,190,2012-10-11 06:15:00
1:35 AM,48.2,30.2,50,29.99,10.0,South,15.0,-,N/A,,Clear,190,2012-10-11 06:35:00
1:55 AM,48.2,30.2,50,29.98,10.0,South,13.8,-,N/A,,Clear,180,2012-10-11 06:55:00
2:15 AM,48.2,30.2,50,29.98,10.0,South,12.7,-,N/A,,Clear,190,2012-10-11 07:15:00
2:35 AM,48.2,30.4,50,29.98,10.0,South,11.5,-,N/A,,Clear,190,2012-10-11 07:35:00
2:55 AM,47.7,30.7,52,29.98,10.0,South,10.4,-,N/A,,Clear,190,2012-10-11 07:55:00
3:15 AM,46.9,30.6,53,29.98,10.0,South,8.1,-,N/A,,Clear,180,2012-10-11 08:15:00
3:35 AM,46.8,30.6,53,29.97,10.0,South,10.4,-,N/A,,Clear,180,2012-10-11 08:35:00
3:55 AM,46.8,30.7,54,29.97,10.0,South,8.1,-,N/A,,Clear,190,2012-10-11 08:55:00
4:15 AM,47.1,31.1,54,29.97,10.0,South,10.4,-,N/A,,Clear,180,2012-10-11 09:15:00
4:35 AM,45.5,31.6,58,29.96,10.0,South,8.1,-,N/A,,Clear,180,2012-10-11 09:35:00
4:55 AM,45.1,31.6,59,29.96,10.0,South,6.9,-,N/A,,Clear,180,2012-10-11 09:55:00
5:15 AM,43.7,31.5,62,29.96,10.0,South,6.9,-,N/A,,Clear,180,2012-10-11 10:15:00
5:35 AM,43.0,31.6,64,29.96,10.0,South,8.1,-,N/A,,Clear,180,2012-10-11 10:35:00
5:55 AM,43.0,31.6,64,29.96,10.0,South,9.2,-,N/A,,Clear,180,2012-10-11 10:55:00
6:15 AM,44.2,32.0,62,29.97,10.0,South,9.2,-,N/A,,Clear,190,2012-10-11 11:15:00
6:35 AM,44.6,32.2,62,29.97,10.0,South,8.1,-,N/A,,Clear,190,2012-10-11 11:35:00
6:55 AM,44.2,32.5,63,29.97,10.0,South,6.9,-,N/A,,Clear,190,2012-10-11 11:55:00
7:35 AM,44.1,33.3,66,29.98,10.0,South,6.9,-,N/A,,Clear,180,2012-10-11 12:35:00
7:55 AM,44.2,33.8,67,29.98,10.0,SSW,4.6,-,N/A,,Clear,200,2012-10-11 12:55:00
8:15 AM,43.9,34.0,68,30.00,10.0,WSW,3.5,-,N/A,,Clear,240,2012-10-11 13:15:00
8:35 AM,44.2,34.5,69,30.00,10.0,Calm,Calm,-,N/A,,Clear,0,2012-10-11 13:35:00
8:55 AM,46.8,35.2,64,30.02,10.0,Calm,Calm,-,N/A,,Clear,0,2012-10-11 13:55:00
9:15 AM,47.1,35.8,65,30.03,10.0,North,6.9,-,N/A,,Clear,350,2012-10-11 14:15:00
9:35 AM,49.1,36.3,61,30.04,10.0,NNW,8.1,-,N/A,,Clear,330,2012-10-11 14:35:00
9:55 AM,49.8,36.1,59,30.04,10.0,NNW,8.1,-,N/A,,Clear,330,2012-10-11 14:55:00
10:15 AM,50.5,36.5,59,30.04,10.0,NNW,9.2,-,N/A,,Clear,340,2012-10-11 15:15:00
10:35 AM,53.2,37.8,56,30.04,10.0,North,9.2,-,N/A,,Clear,350,2012-10-11 15:35:00
10:55 AM,54.3,35.8,50,30.06,10.0,North,11.5,-,N/A,,Clear,360,2012-10-11 15:55:00
11:15 AM,56.5,34.2,43,30.07,10.0,North,18.4,-,N/A,,Clear,10,2012-10-11 16:15:00
11:35 AM,57.7,33.3,40,30.07,10.0,NNE,18.4,25.3,N/A,,Clear,30,2012-10-11 16:35:00
11:55 AM,57.9,33.3,39,30.08,10.0,NNE,19.6,25.3,N/A,,Clear,30,2012-10-11 16:55:00
12:15 PM,58.5,34.0,40,30.08,10.0,NNE,19.6,27.6,N/A,,Clear,30,2012-10-11 17:15:00
12:55 PM,59.2,34.3,39,30.09,10.0,NNE,20.7,-,N/A,,Clear,30,2012-10-11 17:55:00
1:15 PM,59.0,34.2,39,30.09,10.0,NNE,25.3,31.1,N/A,,Clear,20,2012-10-11 18:15:00
1:35 PM,58.5,34.2,40,30.09,10.0,NNE,24.2,31.1,N/A,,Clear,30,2012-10-11 18:35:00
1:55 PM,59.2,33.8,38,30.09,10.0,NNE,23.0,31.1,N/A,,Clear,30,2012-10-11 18:55:00
2:15 PM,61.0,33.4,36,30.10,10.0,NE,23.0,27.6,N/A,,Clear,40,2012-10-11 19:15:00
2:35 PM,59.7,33.3,37,30.10,10.0,NNE,25.3,29.9,N/A,,Clear,30,2012-10-11 19:35:00
2:55 PM,59.5,33.6,38,30.11,10.0,NNE,24.2,27.6,N/A,,Clear,20,2012-10-11 19:55:00
3:15 PM,59.0,33.3,38,30.12,10.0,NNE,21.9,32.2,N/A,,Clear,30,2012-10-11 20:15:00
3:55 PM,58.6,33.3,38,30.13,10.0,NE,25.3,29.9,N/A,,Clear,40,2012-10-11 20:55:00
4:15 PM,59.7,33.3,37,30.14,10.0,NE,25.3,29.9,N/A,,Clear,40,2012-10-11 21:15:00
4:35 PM,59.9,32.7,36,30.15,10.0,NE,20.7,28.8,N/A,,Clear,40,2012-10-11 21:35:00
5:15 PM,56.8,32.0,39,30.16,10.0,NE,24.2,-,N/A,,Clear,50,2012-10-11 22:15:00
5:35 PM,55.6,32.0,41,30.18,10.0,NE,23.0,27.6,N/A,,Clear,40,2012-10-11 22:35:00
5:55 PM,55.6,31.8,41,30.18,10.0,NNE,18.4,24.2,N/A,,Clear,30,2012-10-11 22:55:00
6:15 PM,54.7,31.1,41,30.19,10.0,NE,23.0,28.8,N/A,,Clear,40,2012-10-11 23:15:00
6:35 PM,53.6,30.4,41,30.20,10.0,NE,18.4,21.9,N/A,,Clear,50,2012-10-11 23:35:00
6:55 PM,52.2,29.3,41,30.21,10.0,NE,18.4,23.0,N/A,,Clear,40,2012-10-11 23:55:00
7:15 PM,50.9,29.3,43,30.21,10.0,NE,16.1,-,N/A,,Clear,50,2012-10-12 00:15:00
7:35 PM,49.5,28.9,45,30.22,10.0,NE,15.0,-,N/A,,Clear,40,2012-10-12 00:35:00
8:15 PM,47.7,28.4,47,30.24,10.0,NNE,13.8,-,N/A,,Clear,30,2012-10-12 01:15:00
8:35 PM,46.6,27.5,47,30.25,10.0,NNE,13.8,-,N/A,,Clear,30,2012-10-12 01:35:00
8:55 PM,46.4,26.8,46,30.25,10.0,NNE,11.5,-,N/A,,Clear,30,2012-10-12 01:55:00
9:15 PM,45.5,26.4,47,30.26,10.0,NE,13.8,-,N/A,,Clear,40,2012-10-12 02:15:00
9:35 PM,45.5,25.7,46,30.27,10.0,NE,13.8,-,N/A,,Clear,50,2012-10-12 02:35:00
9:55 PM,44.6,25.7,48,30.28,10.0,NE,12.7,-,N/A,,Clear,40,2012-10-12 02:55:00
10:15 PM,44.2,25.3,47,30.29,10.0,NE,15.0,19.6,N/A,,Clear,50,2012-10-12 03:15:00
10:55 PM,42.8,25.2,50,30.30,10.0,NE,12.7,-,N/A,,Clear,40,2012-10-12 03:55:00
11:15 PM,42.1,25.2,51,30.30,10.0,NE,12.7,-,N/A,,Clear,40,2012-10-12 04:15:00
11:35 PM,41.5,25.2,52,30.30,10.0,NE,12.7,-,N/A,,Clear,40,2012-10-12 04:35:00
11:55 PM,41.0,25.2,53,30.30,10.0,NE,11.5,-,N/A,,Clear,40,2012-10-12 04:55:00